TNCM

Details ICAO TNCM (SXM)
Name Princess Juliana Intl
Region Caribbean Netherlands, Aruba, Curaçao, Sint Maarten
Timezone Unknown
Plans Departing 10307
Arriving 13342
Stats Elevation 14 ft / 4 m (AMSL)
Location 18.040900° -63.108900°
Runways 1
Magnetic Variation 14.460° W
Sunrise 2022-11-26 10:26:06 UTC / 2022-11-26 10:26:06 Local
Sunset 2022-11-26 21:36:21 UTC / 2022-11-26 21:36:21 Local
Advertisement - Login to hide

Runways

ID Width Length Bearing (true/mag) Surface Threshold Overrun Markings Lighting
10 148 ft / 45 m 7,553 ft / 2,302 m 81.44° / 95.90° ASPHALT 331 ft / 101 m 164 ft / 50 m PREC-APP EDGE THRESHOLD REIL-OMNI
28 148 ft / 45 m 7,553 ft / 2,302 m 261.45° / 275.91° ASPHALT 0 ft / 0 m 200 ft / 61 m APP EDGE THRESHOLD

Map

Weather


0- 5 10 15 20 25 30 35+ Temperature / °C

Clouds and Precipitation
Forecast for 2022-11-26 18:00 UTC. Updated 4 hours ago

Ground ~20,000 ft ~40,000 ft Winds

METAR

TNCM 261900Z 08009KT 9999 FEW020 28/22 Q1015 NOSIG

TAF

TAF TNCM 261600Z 2618/2718 07009KT 9999 SCT020

Frequencies

Recorded 127.65 MHz ATIS
Approach 128.95 MHz Juliana Approach
Tower 118.70 MHz Juliana Tower
Departure 128.95 MHz Juliana Departure
Warning: Do not use this data for real-world aviation or navigation. No guarantee of current accuracy is given.